Weather History for Marshall, MN

Change the Weather History Date:

Friday, November 9, 2012

  Actual Average Record
Temperature  
Mean Temperature 40 °F -  
Max Temperature 51 °F 43 °F 71 °F (1999)
Min Temperature 30 °F 26 °F 9 °F (1973)
Degree Days  
Heating Degree Days 24    
Moisture  
Dew Point 34 °F    
Average Humidity 76    
Maximum Humidity 93    
Minimum Humidity 58    
Precipitation  
Precipitation 0.00 in - - ()
Sea Level Pressure  
Sea Level Pressure 29.91 in    
Wind  
Wind Speed 10 mph (ENE)    
Max Wind Speed 20 mph    
Max Gust Speed 29 mph    
Visibility 7 miles    
Events      
Averages and records for this station are not official NWS values.
T = Trace of Precipitation, MM = Missing Value Source: NWS Daily Summary

Daily Weather History Graph

Daily Weather History Graph

Search for Another Location

Airport:

Trip Planner

Search our weather history database for the weather conditions in past years. The results will help you decide how hot, cold, wet, or windy it might be!

Date:

Astronomy

Nov. 09, 2012 Rise Set
Actual Time 7:12 AM CST 5:01 PM CST
Civil Twilight 6:41 AM CST 5:32 PM CST
Nautical Twilight 6:06 AM CST 6:07 PM CST
Astronomical Twilight 5:32 AM CST 6:41 PM CST
Moon 2:01 AM CST (11/9) 2:24 PM CST (11/9)
Length of Visible Light 10h 51m
Length of Day
9h 49m
Waning Crescent, 23% of the Moon is Illuminated
Nov 9
Waning Crescent
Nov 13
New
Nov 20
First Quarter
Nov 28
Full
Dec 6
Last Quarter

Hourly Weather History & Observations

Time (CST) Temp. Windchill Dew Point Humidity Pressure Visibility Wind Dir Wind Speed Gust Speed Precip Events Conditions
12:15 AM 33.8 °F 27.0 °F 30.2 °F 87% 30.00 in 7.0 mi North 8.1 mph - N/A   Clear
12:35 AM 33.8 °F 27.0 °F 28.4 °F 81% 30.00 in 6.0 mi North 8.1 mph - N/A   Clear
12:55 AM 33.8 °F 28.6 °F 28.4 °F 81% 29.99 in 5.0 mi North 5.8 mph - N/A   Clear
1:15 AM 32.0 °F 24.8 °F 28.4 °F 87% 29.99 in 5.0 mi NNW 8.1 mph - N/A   Clear
1:35 AM 33.8 °F 27.0 °F 30.2 °F 87% 29.99 in 5.0 mi North 8.1 mph - N/A   Clear
1:55 AM 33.8 °F 27.7 °F 28.4 °F 81% 29.98 in 5.0 mi North 6.9 mph - N/A   Clear
2:15 AM 32.0 °F 26.4 °F 28.4 °F 87% 29.98 in 3.0 mi North 5.8 mph - N/A   Clear
2:35 AM 30.2 °F 23.4 °F 28.4 °F 93% 29.97 in 3.0 mi North 6.9 mph - N/A   Clear
2:55 AM 32.0 °F 24.2 °F 28.4 °F 87% 30.00 in 4.0 mi NNW 9.2 mph - N/A   Clear
3:15 AM 32.0 °F 24.2 °F 28.4 °F 87% 30.00 in 4.0 mi NNW 9.2 mph - N/A   Scattered Clouds
3:35 AM 32.0 °F 25.6 °F 28.4 °F 87% 29.99 in 4.0 mi NNW 6.9 mph - N/A   Overcast
3:55 AM 33.8 °F 27.7 °F 30.2 °F 87% 29.99 in 4.0 mi North 6.9 mph - N/A   Overcast
4:15 AM 33.8 °F 27.0 °F 30.2 °F 87% 29.99 in 4.0 mi North 8.1 mph - N/A   Overcast
4:35 AM 32.0 °F 24.8 °F 28.4 °F 87% 29.99 in 4.0 mi North 8.1 mph - N/A   Overcast
4:55 AM 33.8 °F 26.4 °F 30.2 °F 87% 30.00 in 4.0 mi North 9.2 mph - N/A   Overcast
5:15 AM 33.8 °F 26.4 °F 30.2 °F 87% 29.99 in 4.0 mi North 9.2 mph - N/A   Overcast
5:55 AM 32.0 °F 25.6 °F 28.4 °F 87% 29.99 in 4.0 mi North 6.9 mph - N/A   Overcast
6:15 AM 33.8 °F 27.0 °F 30.2 °F 87% 29.99 in 4.0 mi North 8.1 mph - N/A   Overcast
6:35 AM 32.0 °F 25.6 °F 30.2 °F 93% 29.99 in 4.0 mi North 6.9 mph - N/A   Overcast
6:55 AM 32.0 °F 27.5 °F 28.4 °F 87% 29.99 in 3.0 mi NNE 4.6 mph - N/A   Overcast
7:15 AM 32.0 °F 27.5 °F 30.2 °F 93% 29.99 in 2.5 mi North 4.6 mph - N/A   Overcast
7:35 AM 33.8 °F 29.6 °F 28.4 °F 81% 30.01 in 2.5 mi NNW 4.6 mph - N/A   Overcast
7:55 AM 33.8 °F 28.6 °F 32.0 °F 93% 30.01 in 3.0 mi NNE 5.8 mph - N/A   Overcast
8:15 AM 35.6 °F 30.7 °F 32.0 °F 87% 30.01 in 4.0 mi NNE 5.8 mph - N/A   Overcast
8:55 AM 35.6 °F 28.6 °F 32.0 °F 87% 29.99 in 3.0 mi NNE 9.2 mph - N/A   Overcast
9:15 AM 37.4 °F 29.3 °F 33.8 °F 87% 29.98 in 4.0 mi ENE 12.7 mph - N/A   Overcast
9:35 AM 37.4 °F 29.3 °F 33.8 °F 87% 29.97 in 5.0 mi ENE 12.7 mph - N/A   Overcast
9:55 AM 37.4 °F 28.9 °F 33.8 °F 87% 29.97 in 5.0 mi ENE 13.8 mph - N/A   Overcast
10:15 AM 39.2 °F 32.0 °F 33.8 °F 81% 29.96 in 5.0 mi East 11.5 mph 17.3 mph N/A   Overcast
10:35 AM 39.2 °F 32.5 °F 35.6 °F 87% 29.96 in 5.0 mi East 10.4 mph - N/A   Overcast
10:55 AM 39.2 °F 32.5 °F 35.6 °F 87% 29.96 in 6.0 mi East 10.4 mph - N/A   Overcast
11:15 AM 41.0 °F 36.4 °F 35.6 °F 81% 29.96 in 7.0 mi East 6.9 mph - N/A   Overcast
11:35 AM 42.8 °F 38.0 °F 35.6 °F 76% 29.94 in 8.0 mi East 8.1 mph - N/A   Overcast
11:55 AM 44.6 °F 39.2 °F 37.4 °F 76% 29.92 in 9.0 mi East 10.4 mph - N/A   Overcast
12:15 PM 46.4 °F 40.7 °F 37.4 °F 71% 29.91 in 10.0 mi East 12.7 mph - N/A   Scattered Clouds
12:35 PM 46.4 °F 40.4 °F 37.4 °F 71% 29.90 in 10.0 mi East 13.8 mph - N/A   Partly Cloudy
12:55 PM 48.2 °F - 37.4 °F 66% 29.88 in 10.0 mi East 12.7 mph 16.1 mph N/A   Clear
1:15 PM 50.0 °F - 37.4 °F 62% 29.88 in 10.0 mi East 11.5 mph - N/A   Clear
1:35 PM 51.8 °F - 37.4 °F 58% 29.86 in 10.0 mi East 18.4 mph - N/A   Clear
1:55 PM 51.8 °F - 37.4 °F 58% 29.86 in 10.0 mi ESE 13.8 mph 20.7 mph N/A   Clear
2:15 PM 51.8 °F - 37.4 °F 58% 29.86 in 10.0 mi East 13.8 mph - N/A   Partly Cloudy
2:35 PM 51.8 °F - 37.4 °F 58% 29.85 in 10.0 mi ESE 15.0 mph - N/A   Scattered Clouds
2:55 PM 51.8 °F - 37.4 °F 58% 29.85 in 10.0 mi East 15.0 mph - N/A   Clear
3:15 PM 51.8 °F - 37.4 °F 58% 29.85 in 10.0 mi East 13.8 mph - N/A   Clear
3:35 PM 51.8 °F - 37.4 °F 58% 29.85 in 10.0 mi East 17.3 mph 20.7 mph N/A   Clear
3:55 PM 51.8 °F - 39.2 °F 62% 29.85 in 10.0 mi East 13.8 mph - N/A   Clear
4:15 PM 51.8 °F - 37.4 °F 58% 29.84 in 10.0 mi East 13.8 mph - N/A   Partly Cloudy
4:35 PM 51.8 °F - 37.4 °F 58% 29.83 in 10.0 mi East 15.0 mph - N/A   Clear
4:55 PM 50.0 °F - 39.2 °F 66% 29.84 in 10.0 mi East 11.5 mph - N/A   Clear
5:15 PM 48.2 °F - 39.2 °F 71% 29.83 in 10.0 mi East 13.8 mph - N/A   Mostly Cloudy
5:35 PM 48.2 °F - 39.2 °F 71% 29.84 in 10.0 mi East 13.8 mph - N/A   Overcast
5:55 PM 48.2 °F - 39.2 °F 71% 29.84 in 10.0 mi East 15.0 mph - N/A   Overcast
6:15 PM 48.2 °F - 37.4 °F 66% 29.84 in 10.0 mi East 13.8 mph 20.7 mph N/A   Overcast
6:35 PM 48.2 °F - 37.4 °F 66% 29.84 in 10.0 mi East 12.7 mph - N/A   Overcast
6:55 PM 48.2 °F - 39.2 °F 71% 29.84 in 10.0 mi East 15.0 mph - N/A   Overcast
7:15 PM 48.2 °F - 39.2 °F 71% 29.83 in 10.0 mi East 15.0 mph - N/A   Overcast
7:35 PM 48.2 °F - 39.2 °F 71% 29.84 in 10.0 mi East 11.5 mph - N/A   Overcast
7:55 PM 48.2 °F - 37.4 °F 66% 29.85 in 10.0 mi East 13.8 mph 19.6 mph N/A   Overcast
8:15 PM 48.2 °F - 37.4 °F 66% 29.86 in 10.0 mi East 15.0 mph - N/A   Overcast
8:35 PM 48.2 °F - 37.4 °F 66% 29.84 in 10.0 mi East 18.4 mph 23.0 mph N/A   Overcast
8:55 PM 48.2 °F - 37.4 °F 66% 29.83 in 10.0 mi East 13.8 mph - N/A   Overcast
9:15 PM 46.4 °F 39.8 °F 37.4 °F 71% 29.84 in 10.0 mi East 16.1 mph 24.2 mph N/A   Overcast
9:35 PM 46.4 °F 39.5 °F 37.4 °F 71% 29.84 in 10.0 mi East 17.3 mph 23.0 mph N/A   Overcast
9:55 PM 46.4 °F 39.8 °F 37.4 °F 71% 29.83 in 10.0 mi East 16.1 mph 21.9 mph N/A   Overcast
10:15 PM 46.4 °F 40.1 °F 37.4 °F 71% 29.82 in 10.0 mi East 15.0 mph 20.7 mph N/A   Overcast
10:35 PM 46.4 °F 40.1 °F 37.4 °F 71% 29.81 in 10.0 mi East 15.0 mph 21.9 mph N/A   Overcast
10:55 PM 46.4 °F 39.5 °F 37.4 °F 71% 29.80 in 10.0 mi ESE 17.3 mph - N/A   Overcast
11:15 PM 46.4 °F 39.5 °F 37.4 °F 71% 29.79 in 8.0 mi East 17.3 mph 24.2 mph N/A   Overcast
11:35 PM 46.4 °F 39.8 °F 37.4 °F 71% 29.78 in 8.0 mi East 16.1 mph 23.0 mph N/A   Overcast
11:55 PM 46.4 °F 39.0 °F 37.4 °F 71% 29.77 in 8.0 mi ESE 19.6 mph 28.8 mph N/A   Overcast